Ogallala, NE

4:18 PM MST on December 18, 2017 (GMT -0700)
Searle

Weather History for KOGA - May, 2013

Change the Weather History Date:

Monday, May 20, 2013

  Actual Average Record
Temperature  
Mean Temperature 54 °F -  
Max Temperature 59 °F 75 °F 96 °F (2005)
Min Temperature 50 °F 46 °F 33 °F (1968)
Degree Days  
Heating Degree Days 11    
Growing Degree Days 4 (Base 50)    
Moisture  
Dew Point 48 °F    
Average Humidity 78    
Maximum Humidity 94    
Minimum Humidity 63    
Precipitation  
Precipitation 0.13 in - - ()
Sea Level Pressure  
Sea Level Pressure 29.77 in    
Wind  
Wind Speed 14 mph (WNW)    
Max Wind Speed 36 mph    
Max Gust Speed 45 mph    
Visibility 10 miles    
Events Rain    
Averages and records for this station are not official NWS values.
T = Trace of Precipitation, MM = Missing Value Source: NWS Daily Summary

Daily Weather History Graph

Daily Weather History Graph

Search for Another Location

Airport or City:

Trip Planner

Search our weather history database for the weather conditions in past years. The results will help you decide how hot, cold, wet, or windy it might be!

Date:

Astronomy

May. 20, 2013 Rise Set
Actual Time 5:24 AM MDT 8:03 PM MDT
Civil Twilight 4:52 AM MDT 8:35 PM MDT
Nautical Twilight 4:12 AM MDT 9:15 PM MDT
Astronomical Twilight 3:27 AM MDT 10:00 PM MDT
Moon 3:10 PM MDT (5/20) 2:22 AM MDT (5/20)
Length of Visible Light 15h 43m
Length of Day
14h 39m
Waxing Gibbous, 75% of the Moon is Illuminated
May 20
Waxing Gibbous
May 24
Full
May 31
Last Quarter
Jun 8
New
Jun 16
First Quarter

Hourly Weather History & Observations

Time (MDT) Temp. Dew Point Humidity Pressure Visibility Wind Dir Wind Speed Gust Speed Precip Events Conditions
12:15 AM 55.0 °F 52.5 °F 91% 29.73 in 10.0 mi WNW 6.9 mph - 0.01 in Rain Light Rain
12:35 AM 54.7 °F 52.5 °F 92% 29.73 in 10.0 mi West 6.9 mph - 0.01 in   Light Drizzle
12:55 AM 54.7 °F 52.3 °F 92% 29.74 in 10.0 mi West 4.6 mph - 0.02 in Rain Light Rain
1:15 AM 54.5 °F 52.3 °F 92% 29.74 in 10.0 mi West 5.8 mph - N/A   Drizzle
1:35 AM 54.5 °F 51.8 °F 91% 29.74 in 10.0 mi WNW 6.9 mph - N/A   Light Drizzle
1:55 AM 54.0 °F 51.1 °F 90% 29.73 in 10.0 mi West 5.8 mph - 0.01 in   Drizzle
2:15 AM 54.5 °F 52.7 °F 94% 29.73 in 7.0 mi Calm Calm - 0.01 in Rain Light Rain
2:35 AM 54.5 °F 52.7 °F 94% 29.73 in 5.0 mi West 5.8 mph - 0.03 in Rain Heavy Rain
2:55 AM 53.2 °F 51.3 °F 93% 29.72 in 4.0 mi WNW 3.5 mph - 0.06 in Rain Light Rain
3:35 AM 53.8 °F 51.1 °F 91% 29.73 in 10.0 mi WNW 9.2 mph - N/A   Overcast
3:55 AM 54.0 °F 49.1 °F 84% 29.73 in 10.0 mi WNW 15.0 mph 24.2 mph N/A   Scattered Clouds
4:15 AM 53.2 °F 48.2 °F 83% 29.74 in 10.0 mi WNW 13.8 mph - N/A   Scattered Clouds
4:35 AM 52.3 °F 47.5 °F 84% 29.74 in 10.0 mi West 11.5 mph 18.4 mph N/A   Scattered Clouds
4:55 AM 51.6 °F 47.5 °F 86% 29.74 in 10.0 mi West 10.4 mph - N/A   Clear
5:15 AM 50.9 °F 47.5 °F 88% 29.74 in 10.0 mi West 9.2 mph - N/A   Clear
5:35 AM 50.7 °F 47.3 °F 88% 29.74 in 10.0 mi West 10.4 mph - N/A   Clear
5:55 AM 50.9 °F 47.3 °F 87% 29.74 in 10.0 mi West 11.5 mph - N/A   Clear
6:15 AM 51.3 °F 47.3 °F 86% 29.74 in 10.0 mi West 9.2 mph - N/A   Clear
6:35 AM 51.8 °F 47.7 °F 86% 29.75 in 10.0 mi West 10.4 mph - N/A   Clear
6:55 AM 53.6 °F 48.4 °F 82% 29.74 in 10.0 mi West 11.5 mph - N/A   Clear
7:15 AM 54.5 °F 48.0 °F 79% 29.74 in 10.0 mi West 15.0 mph 20.7 mph N/A   Scattered Clouds
7:35 AM 56.3 °F 48.6 °F 75% 29.74 in 10.0 mi West 21.9 mph 26.5 mph N/A   Mostly Cloudy
7:55 AM 56.7 °F 48.2 °F 73% 29.73 in 10.0 mi West 21.9 mph 31.1 mph N/A   Scattered Clouds
8:15 AM 58.3 °F 47.8 °F 68% 29.74 in 10.0 mi WNW 29.9 mph 38.0 mph N/A   Mostly Cloudy
8:35 AM 58.1 °F 47.3 °F 67% 29.74 in 10.0 mi WNW 24.2 mph 33.4 mph N/A   Mostly Cloudy
8:55 AM 56.5 °F 46.0 °F 68% 29.75 in 10.0 mi WNW 26.5 mph 34.5 mph N/A   Overcast
9:35 AM 57.9 °F 46.2 °F 65% 29.75 in 10.0 mi WNW 25.3 mph 32.2 mph N/A   Overcast
9:55 AM 56.1 °F 46.6 °F 70% 29.75 in 10.0 mi WNW 18.4 mph 27.6 mph N/A   Overcast
10:15 AM 57.7 °F 45.3 °F 63% 29.75 in 10.0 mi WNW 21.9 mph 34.5 mph N/A   Overcast
10:35 AM 57.9 °F 46.0 °F 65% 29.74 in 10.0 mi West 25.3 mph 38.0 mph N/A   Overcast
10:55 AM 58.6 °F 46.4 °F 64% 29.74 in 10.0 mi WNW 26.5 mph 34.5 mph N/A   Overcast
11:15 AM 57.6 °F 45.0 °F 63% 29.74 in 10.0 mi WNW 26.5 mph 35.7 mph N/A   Overcast
11:35 AM 55.8 °F 45.5 °F 68% 29.75 in 7.0 mi NW 31.1 mph 42.6 mph N/A   Overcast
11:55 AM 56.3 °F 45.5 °F 67% 29.75 in 10.0 mi NW 29.9 mph 38.0 mph N/A   Overcast
12:15 PM 57.2 °F 47.5 °F 70% 29.75 in 10.0 mi NW 33.4 mph 44.9 mph N/A   Overcast
12:55 PM 55.4 °F 45.9 °F 70% 29.76 in 10.0 mi NW 35.7 mph 44.9 mph N/A   Overcast
1:15 PM 54.5 °F 46.4 °F 74% 29.76 in 10.0 mi NW 28.8 mph 39.1 mph N/A   Overcast
1:35 PM 54.1 °F 46.8 °F 76% 29.76 in 10.0 mi NW 29.9 mph 39.1 mph N/A   Overcast
1:55 PM 54.5 °F 47.7 °F 78% 29.76 in 10.0 mi WNW 27.6 mph 35.7 mph N/A   Overcast
2:15 PM 54.0 °F 48.6 °F 82% 29.76 in 10.0 mi WNW 23.0 mph 32.2 mph N/A   Drizzle
2:35 PM 53.8 °F 48.6 °F 82% 29.76 in 10.0 mi WNW 24.2 mph 29.9 mph N/A   Light Drizzle
2:55 PM 53.8 °F 48.4 °F 82% 29.77 in 10.0 mi WNW 23.0 mph 31.1 mph 0.01 in Rain Light Rain
3:15 PM 54.5 °F 48.2 °F 79% 29.77 in 10.0 mi WNW 23.0 mph 32.2 mph 0.01 in Rain Light Rain
3:35 PM 54.9 °F 48.4 °F 79% 29.76 in 10.0 mi WNW 25.3 mph 31.1 mph 0.02 in Rain Light Rain
3:55 PM 55.4 °F 48.4 °F 77% 29.76 in 10.0 mi WNW 25.3 mph 32.2 mph 0.02 in   Overcast
4:15 PM 54.5 °F 48.9 °F 81% 29.77 in 5.0 mi NW 23.0 mph 32.2 mph N/A   Haze
4:35 PM 54.1 °F 49.3 °F 84% 29.78 in 4.0 mi NNW 20.7 mph 32.2 mph 0.01 in Rain Light Rain
4:55 PM 54.0 °F 49.3 °F 84% 29.78 in 7.0 mi NNW 17.3 mph - 0.01 in Rain Rain
5:15 PM 54.3 °F 48.6 °F 81% 29.79 in 10.0 mi NW 19.6 mph 24.2 mph N/A   Light Drizzle
5:35 PM 54.1 °F 48.6 °F 81% 29.79 in 10.0 mi NW 19.6 mph 27.6 mph N/A   Light Drizzle
5:55 PM 54.7 °F 48.9 °F 81% 29.79 in 10.0 mi NW 16.1 mph - N/A   Overcast
6:15 PM 55.8 °F 48.4 °F 76% 29.79 in 10.0 mi NW 20.7 mph 26.5 mph N/A   Overcast
6:35 PM 55.4 °F 47.3 °F 74% 29.80 in 10.0 mi NW 24.2 mph 29.9 mph N/A   Overcast
6:55 PM 55.8 °F 47.7 °F 74% 29.80 in 10.0 mi NW 20.7 mph 29.9 mph N/A   Overcast
7:15 PM 54.5 °F 47.3 °F 77% 29.81 in 10.0 mi NNW 16.1 mph 25.3 mph N/A   Overcast
7:35 PM 54.7 °F 46.9 °F 75% 29.82 in 10.0 mi NW 16.1 mph - N/A   Overcast
8:15 PM 54.5 °F 45.3 °F 71% 29.83 in 10.0 mi NW 18.4 mph 24.2 mph N/A   Overcast
8:35 PM 54.1 °F 45.5 °F 73% 29.83 in 10.0 mi NW 13.8 mph 23.0 mph N/A   Overcast
8:55 PM 54.0 °F 45.1 °F 72% 29.84 in 10.0 mi NW 15.0 mph - N/A   Overcast
9:15 PM 53.8 °F 44.8 °F 72% 29.83 in 10.0 mi NW 18.4 mph 23.0 mph N/A   Overcast
9:35 PM 53.6 °F 44.2 °F 71% 29.84 in 10.0 mi NW 19.6 mph 24.2 mph N/A   Overcast
9:55 PM 53.6 °F 44.6 °F 72% 29.84 in 10.0 mi NW 17.3 mph - N/A   Overcast
10:15 PM 53.2 °F 44.8 °F 73% 29.84 in 10.0 mi WNW 15.0 mph - N/A   Overcast
10:35 PM 53.2 °F 44.1 °F 71% 29.84 in 10.0 mi WNW 17.3 mph 25.3 mph N/A   Overcast
10:55 PM 53.1 °F 44.4 °F 72% 29.85 in 10.0 mi WNW 15.0 mph - N/A   Overcast
11:35 PM 53.1 °F 44.1 °F 71% 29.85 in 10.0 mi WNW 17.3 mph 23.0 mph N/A   Overcast
11:40 PM 53.6 °F 44.6 °F 72% 29.85 in 10.0 mi WNW 12.7 mph 16.1 mph N/A   Overcast
11:55 PM 52.7 °F 44.4 °F 73% 29.85 in 10.0 mi WNW 13.8 mph 20.7 mph N/A   Overcast